Location: G?uch�wki
(50.0667°N, 19.6333°E)
Time: 06:09:10
(UTC+00:00)

Daily predictions for brighter satellites

Satellite Brightness Start Highest point End
(mag) Time Altitude Azimuth Time Altitude Azimuth Time Altitude Azimuth
ERS-2 4.2 19:31:51 10° N 19:35:07 31° WNW 19:38:21 10° SW
BREEZE-M DEB (TANK) 2.6 19:40:49 10° WNW 19:45:23 55° SSW 19:47:31 10° SE
Aureole 1 Rocket 4.1 19:40:04 10° NNW 19:45:40 70° ENE 19:52:54 10° SSE
Cosmos 1459 Rocket 4.1 19:40:47 10° N 19:46:47 63° ENE 19:52:48 10° SSE
Cosmos 292 Rocket 4.0 19:44:58 10° SSW 19:49:48 80° WNW 19:54:39 10° NNE
Cosmos 1025 Rocket 3.8 19:46:35 10° SSE 19:50:35 36° E 19:54:36 10° NNE
KORONAS-FOTON 3.9 19:48:05 10° S 19:51:48 57° E 19:55:32 10° NNE
USA 267 4.1 19:45:33 10° E 19:51:51 52° N 19:58:10 10° WNW
SL-16 R/B 2.3 19:46:21 10° SSW 19:52:02 86° WNW 19:57:46 10° NNE
Cosmos 2360 Rocket 2.5 19:46:54 10° S 19:52:18 49° ESE 19:57:44 10° NE
Cosmos 2322 Rocket 2.2 19:48:29 10° SSW 19:54:11 81° ESE 19:59:56 10° NNE
Genesis I 3.7 19:51:09 10° SW 19:55:01 66° NW 19:58:58 10° NE
CARTOSAT-1 3.6 19:50:59 10° SSE 19:55:18 84° ENE 19:59:39 10° NNW
USA 81 4.4 19:50:10 10° N 19:55:24 66° W 20:00:37 10° S
Cosmos 1461 2.9 19:51:31 10° NW 19:55:48 79° SW 19:59:44 11° SSE
Resurs 01 Rocket 3.1 19:52:17 10° SSW 19:56:18 34° W 20:00:21 10° NNW
USA 245 4.4 19:53:49 10° S 19:58:39 71° W 20:04:29 10° NNW
Cosmos 1900 4.4 19:56:18 10° NW 20:01:14 73° NE 20:05:55 11° SE
Meteor 1-16 Rocket 4.2 19:55:52 10° NNW 20:01:25 87° W 20:06:47 10° S
JB-3 4.3 19:57:49 10° NNE 20:01:47 73° ESE 20:05:47 10° S
Cosmos 1975 Rocket 3.0 19:59:44 10° S 20:04:05 87° ESE 20:08:31 10° N
Cosmos 1110 Rocket 4.2 19:59:31 10° S 20:04:32 54° ESE 20:09:37 10° NNE
SPOT 5 3.0 20:02:26 10° SSE 20:07:35 80° ENE 20:12:30 10° NNW
ATLAS CENTAUR R/B 1.8 20:03:41 10° NW 20:07:55 61° NE 20:12:14 11° SE
Cosmos 2061 Rocket 4.3 20:01:48 10° N 20:08:11 60° ENE 20:14:15 11° SSE
Cosmos 1674 2.6 20:04:50 10° S 20:08:33 89° E 20:12:17 10° N
Cosmos 968 Rocket 4.4 20:03:59 10° NNW 20:08:44 36° NE 20:13:27 10° ESE
COSMOS 2428 3.9 20:06:24 10° SSE 20:10:47 24° ESE 20:15:18 10° NE
Cosmos 2322 4.4 20:07:27 10° S 20:12:29 34° ESE 20:17:33 10° NE
Terra 1.9 20:10:29 12° SSE 20:14:55 68° ENE 20:19:41 10° N
Cosmos 2237 4.2 20:10:01 10° SSW 20:15:44 85° ESE 20:21:28 10° NNE
Cosmos 2278 Rocket 3.6 20:11:18 10° NNW 20:16:17 30° NE 20:21:16 10° ESE
Cosmos 1300 3.4 20:12:59 10° N 20:16:38 41° ENE 20:19:35 14° SE
Lacrosse 5 3.7 20:17:00 10° W 20:20:34 19° SW 20:24:08 10° S
Cosmos 2123 Rocket 4.2 20:14:50 10° S 20:20:58 58° E 20:27:11 10° NNE
Cosmos 405 3.1 20:22:06 10° N 20:25:32 61° ENE 20:28:05 17° SSE
Cosmos 1844 Rocket 3.0 20:20:12 10° NW 20:25:48 61° WSW 20:30:54 13° S
Cosmos 2233 Rocket 4.4 20:21:35 10° N 20:27:35 51° ENE 20:32:42 14° SSE
Cosmos 1452 Rocket 4.2 20:22:25 10° SW 20:27:37 57° WNW 20:32:50 10° NNE
SL-8 R/B 4.2 20:24:48 10° W 20:29:21 44° SSW 20:33:01 15° SE
Cosmos 2100 Rocket 4.4 20:23:17 10° NNW 20:29:35 63° W 20:35:48 10° S
ARIANE 5 R/B 3.5 20:29:30 10° S 20:33:45 44° W 20:38:05 10° NNW
Cosmos 1340 2.7 20:32:11 13° S 20:35:25 63° E 20:39:11 10° NNE
GEOS 3 Rocket 4.2 20:30:21 10° ESE 20:35:36 58° NE 20:40:50 10° NW
NOSS 3-2 (C) 4.5 20:30:27 10° WSW 20:36:09 51° NW 20:42:49 10° NE
H-2A R/B 3.6 20:32:22 10° NNE 20:36:24 54° E 20:39:42 15° S
Cosmos 1908 4.4 20:33:30 10° NNW 20:37:10 39° W 20:40:45 10° SSW
Cosmos 1346 Rocket 4.3 20:35:48 15° SE 20:37:55 23° E 20:41:07 10° NE
FALCON 9 DEB 3.0 20:36:24 10° SW 20:39:47 67° SSE 20:43:11 10° ENE
ATLAS 3B R/B 2.8 20:33:42 10° SSW 20:39:59 52° ESE 20:46:30 10° NE
Meteor 2-5 Rocket 3.9 20:36:28 13° S 20:41:16 57° E 20:46:46 10° NNE
FALCON 9 DEB 3.8 20:40:02 10° SSW 20:42:38 26° SE 20:45:17 10° E
Cosmos 1544 Rocket 4.2 20:39:58 10° NNW 20:44:20 52° W 20:48:22 12° S
FALCON 9 DEB 4.0 20:46:12 22° SSE 20:46:23 23° SE 20:48:56 10° E
Cosmos 1606 Rocket 4.4 20:44:57 10° N 20:49:10 39° ENE 20:52:08 17° SE
ERS-1 Rocket 3.8 20:44:31 11° S 20:49:15 46° W 20:54:08 10° NNW
Lacrosse 5 rocket 0.9 20:46:41 10° SW 20:50:17 61° SE 20:53:50 10° ENE
Cosmos 2016 Rocket 4.2 20:44:41 10° NNW 20:50:45 68° W 20:56:18 13° S
Cosmos 1331 Rocket 4.2 20:46:07 10° SSW 20:51:21 74° WNW 20:56:40 10° NNE
Cosmos 2333 4.2 20:45:37 10° SSW 20:51:22 76° ESE 20:57:06 10° NNE
FALCON 9 DEB 3.7 20:50:01 15° SSW 20:52:02 29° SE 20:54:47 10° E
Cosmos 1943 Rocket 4.5 20:52:08 10° N 20:55:44 17° NE 20:59:20 10° ENE
ALOS 2 4.3 20:55:17 11° ESE 20:58:30 24° ENE 21:02:04 10° N
USA 215 3.6 20:53:13 10° ENE 20:59:22 42° SE 21:05:29 10° SSW
BREEZE-M DEB (TANK) 2.3 20:59:16 10° SW 21:01:57 52° SSE 21:08:05 10° ENE
Cosmos 2333 Rocket 2.2 20:56:53 10° SSW 21:02:37 77° ESE 21:08:22 10° NNE
Cosmos 1725 Rocket 4.3 20:56:47 10° NNW 21:02:53 65° W 21:08:13 14° S
Cosmos 1626 3.7 21:05:06 10° SW 21:08:28 33° WNW 21:11:52 10° N
Cosmos 1302 Rocket 4.0 21:04:56 10° SSW 21:10:12 87° ESE 21:15:29 10° NNE
Meteor 2-10 Rocket 3.4 21:05:09 10° N 21:10:18 81° ENE 21:13:41 21° SSE
SL-14 R/B 4.1 21:08:37 10° SSW 21:12:30 50° WNW 21:16:26 10° N
Cosmos 2219 Rocket 2.2 21:08:01 10° SSW 21:13:42 80° ESE 21:19:24 10° NNE
Cosmos 1607 4.3 21:08:54 10° NW 21:15:20 64° NE 21:20:58 13° SE
Cosmos 1867 3.6 21:11:49 10° NW 21:17:21 86° SW 21:21:11 20° SE
Cosmos 1536 Rocket 4.2 21:15:05 12° SSW 21:19:12 55° WNW 21:23:36 10° N
CENTAUR R/B 4.4 21:14:19 10° W 21:20:21 37° NNW 21:27:23 10° NE
DNEPR-1 R/B 4.5 21:20:35 10° NW 21:24:26 35° WSW 21:26:37 21° S
Meteor 1-24 Rocket 3.7 21:21:06 15° SSW 21:25:32 81° WNW 21:31:05 10° N
SL-16 R/B 4.2 21:24:27 11° ESE 21:26:30 13° E 21:28:58 10° ENE
COBE Rocket 4.3 21:25:02 21° SE 21:28:18 55° ENE 21:33:09 10° N
Cosmos 389 Rocket 2.4 21:25:16 10° NNW 21:28:42 77° WSW 21:30:14 30° S
Cosmos 2237 Rocket 2.9 21:27:22 22° SSE 21:30:15 36° ESE 21:35:21 10° NE
Iridium 2 3.8 21:30:31 29° SSE 21:32:15 61° E 21:35:58 10° NNE
Cosmos 2228 3.2 21:29:58 10° NNW 21:34:22 66° W 21:36:56 24° S
USA 267 3.3 21:28:03 10° ESE 21:34:36 87° NNE 21:41:12 10° WNW
Cosmos 2360 Rocket 3.7 21:31:18 10° WSW 21:36:29 36° NW 21:41:41 10° NNE
Cosmos 2322 Rocket 4.5 21:34:15 10° W 21:38:55 25° NW 21:43:37 10° NNE
Meteor 1-4 Rocket 4.3 21:38:02 10° NNE 21:40:52 22° ENE 21:42:37 16° ESE
Cosmos 1486 Rocket 4.3 21:37:01 10° NNW 21:42:09 58° WSW 21:45:12 24° S
Cosmos 1455 2.1 21:40:09 10° N 21:44:01 82° E 21:45:44 31° SSE
ATLAS CENTAUR R/B 3.1 21:43:05 10° WNW 21:46:32 23° WSW 21:48:22 18° SSW
Cosmos 2034 Rocket 4.4 21:40:48 10° N 21:46:53 54° ENE 21:51:00 21° SE
Cosmos 968 Rocket 4.4 21:45:51 10° NW 21:50:33 38° WSW 21:53:28 20° SSW
Cosmos 1184 Rocket 3.1 21:49:59 37° SE 21:50:52 49° E 21:54:01 10° NNE
Okean 1-7 Rocket 4.1 21:50:10 26° SSE 21:52:15 45° E 21:56:30 10° NNE
Terra 3.9 21:49:58 10° SW 21:53:09 18° W 21:56:22 10° NW
COSMOS 2428 3.1 21:48:52 10° SW 21:54:34 67° WNW 22:00:20 10° NNE
Cosmos 1354 Rocket 4.0 21:50:36 10° NNW 21:55:58 85° WSW 21:59:07 26° SSE
FALCON 9 DEB 2.7 21:54:51 14° WSW 21:57:24 71° SSE 22:00:32 10° ENE
Cosmos 1992 Rocket 4.0 21:54:04 19° SSW 21:57:52 87° WNW 22:03:09 10° NNE
Uosat 12 SS-18 rocket 4.3 21:54:41 10° SW 21:59:03 79° NW 22:04:18 10° NE
Cosmos 2278 Rocket 2.4 21:55:11 10° NW 22:00:47 62° WSW 22:04:01 25° S
ATLAS CENTAUR R/B 3.7 21:59:32 24° S 22:02:38 43° ESE 22:14:21 10° NE
Cosmos 2058 Rocket 3.1 22:00:39 10° NNW 22:05:08 79° W 22:07:18 30° S
Cosmos 1726 Rocket 4.4 22:08:21 10° NNW 22:12:35 42° W 22:14:53 23° SSW
GENESIS II 4.1 22:11:59 30° SSW 22:13:48 70° SE 22:17:41 10° NE
GEOS 3 Rocket 4.4 22:11:17 24° S 22:13:48 38° WSW 22:18:45 10° NW
Cosmos 1346 Rocket 4.1 22:11:16 15° SW 22:14:05 35° WNW 22:17:49 10° N
Tsikada Rocket 4.5 22:11:29 23° SSE 22:15:09 49° E 22:21:03 10° NNE
FALCON 9 DEB 4.0 22:13:25 10° W 22:16:47 52° N 22:20:08 10° ENE
FALCON 9 DEB 3.0 22:14:56 10° WSW 22:18:02 74° NNW 22:21:08 10° ENE
GP-B 3.9 22:14:50 10° NNE 22:19:02 40° E 22:21:12 24° SE
FALCON 9 DEB 2.9 22:18:41 10° WSW 22:21:49 81° NNW 22:24:57 10° ENE
NOSS 0 Rocket 4.0 22:16:43 15° SW 22:21:53 82° WNW 22:28:12 10° NNE
SL-4 R/B 2.2 22:22:18 37° S 22:22:56 40° SSE 22:26:26 10° E
Aureole 3 4.4 22:22:39 10° N 22:26:00 36° ENE 22:28:14 21° SE
NOSS 3-1 (C) 4.3 22:25:09 22° SE 22:27:07 27° ESE 22:32:07 10° ENE
FALCON 9 DEB 3.1 22:24:23 10° WSW 22:27:29 69° NNW 22:30:36 10° ENE
Lacrosse 5 rocket 2.6 22:26:11 10° W 22:29:32 36° NNW 22:32:53 10° NE
ATLAS 3B R/B 3.5 22:24:22 10° WSW 22:30:46 50° NW 22:37:26 10° NE
SJ 16-02 1.9 22:27:20 10° NNW 22:31:37 51° ENE 22:34:21 21° SE
Cosmos 1892 Rocket 4.4 22:29:33 20° SW 22:32:14 44° WNW 22:36:32 10° N
ALOS 2 3.2 22:32:40 27° SSW 22:34:37 45° W 22:38:52 10° NNW
Nimbus 7 Rocket 4.4 22:32:58 10° NNE 22:39:02 85° ESE 22:42:52 24° SSW
Cosmos 1441 Rocket 3.4 22:38:21 30° SSW 22:40:04 63° WNW 22:43:53 10° N
Cosmos 1980 3.9 22:36:00 17° SW 22:40:25 71° WNW 22:46:08 10° NNE
Cosmos 1943 Rocket 2.5 22:35:08 10° NNW 22:40:37 64° ENE 22:45:01 16° SE
Cosmos 1703 3.6 22:39:40 29° SW 22:41:29 57° WNW 22:45:24 10° N
USA 215 3.4 22:36:11 10° ENE 22:42:43 80° NNW 22:49:16 10° WSW
Cosmos 1892 4.4 22:42:44 18° SE 22:44:21 23° E 22:47:29 10° NE
Cosmos 2333 Rocket 4.2 22:42:45 10° W 22:47:32 26° NW 22:52:18 10° NNE
Resurs 1-4 Rocket 4.4 22:45:50 10° ENE 22:48:15 13° E 22:50:39 10° ESE
USA 32 4.0 22:43:07 10° N 22:48:24 86° W 22:51:17 28° S
SAR-Lupe-2 3.7 22:45:27 10° N 22:49:02 68° WNW 22:50:27 33° SW
Cosmos 1328 3.9 22:52:30 32° SSW 22:54:09 65° WNW 22:58:03 10° N
Cosmos 2219 Rocket 4.2 22:53:40 10° W 22:58:19 25° NW 23:02:59 10° NNE
EO 1 Del DPAF 3.9 22:55:22 10° NNE 22:58:55 41° E 23:00:15 29° SSE
CZ-2D R/B 4.2 22:56:57 10° NE 22:59:59 15° E 23:02:59 10° ESE
Thor Agena Rocket 3.5 22:56:19 10° NNE 23:01:37 87° WNW 23:04:38 26° SSW
Cosmos 1626 Rocket 3.9 22:59:58 27° SSW 23:02:15 61° WNW 23:06:40 10° N
PSLV R/B 3.5 23:03:27 10° NNE 23:07:46 80° ESE 23:09:53 30° S
Cosmos 1634 Rocket 4.0 23:01:58 10° N 23:08:19 85° W 23:12:24 24° S
Helios 1A 4.0 23:05:25 16° SE 23:08:25 40° ENE 23:12:22 10° N
Cosmos 2279 Rocket 4.2 23:02:33 10° N 23:08:48 66° ENE 23:13:22 19° SSE
Cosmos 1602 Rocket 3.7 23:06:53 29° SSW 23:09:07 71° W 23:13:37 10° N
SL-16 R/B 2.2 23:06:17 26° SSW 23:09:36 74° ESE 23:15:17 10° NNE
X-37B 3.0 23:16:05 12° ESE 23:16:05 12° ESE 23:16:30 10° ESE
Cosmos 2237 Rocket 3.1 23:09:08 11° SW 23:14:13 45° NW 23:19:39 10° NNE
Meteor 1-4 Rocket 3.7 23:12:51 10° NNW 23:15:52 27° W 23:16:45 24° WSW
Cosmos 1758 Rocket 3.5 23:14:18 30° S 23:16:28 86° E 23:20:55 10° N
Cosmos 405 Rocket 4.2 23:15:08 19° SE 23:16:47 26° E 23:19:55 10° NE
NOSS 2-3 (D) 4.3 23:15:21 28° SSE 23:16:52 39° ESE 23:21:19 10° NE
Cosmos 1825 3.8 23:15:22 17° SE 23:17:14 25° E 23:20:23 10° NNE
USA 267 3.8 23:14:48 23° S 23:18:05 36° SW 23:24:03 10° WNW
Cosmos 1763 Rocket 4.5 23:15:33 20° SSE 23:18:13 34° ESE 23:22:48 10° NE
Cosmos 2369 Rocket 2.4 23:17:23 10° NNW 23:23:08 72° ENE 23:28:37 11° SE
Cosmos 1656 Rocket 4.5 23:19:41 10° NNW 23:25:16 51° NE 23:30:47 10° SE
Lacrosse 4 Rocket 4.1 23:24:31 10° N 23:27:36 20° NE 23:30:39 10° E
OPS 6432 4.5 23:26:48 10° NW 23:29:44 49° SW 23:30:36 37° S
Cosmos-2242 3.2 23:26:55 10° NNW 23:31:16 60° W 23:33:23 28° SSW
FALCON 9 DEB 3.9 23:30:11 10° W 23:33:15 48° N 23:36:19 10° ENE
NOSS 2-3 (C) 3.8 23:31:45 29° S 23:33:41 56° SE 23:38:28 10° NE
Cosmos 1174 4.4 23:35:01 21° SW 23:38:50 88° NW 23:43:26 10° NE
Cosmos 1408 2.6 23:37:17 32° S 23:38:52 75° E 23:42:34 10° NNE
Cosmos 2297 4.3 23:38:27 10° NW 23:43:39 39° WSW 23:46:30 23° SSW
Cosmos 2278 Rocket 4.4 23:43:06 10° W 23:43:41 10° W 23:44:16 10° W
Nadezhda 4 Rocket 4.5 23:42:52 17° SSE 23:47:31 52° E 23:53:27 10° NNE
YAOGAN 11 4.1 23:47:40 24° S 23:50:16 71° WSW 23:54:47 10° NNW
Cosmos 1242 Rocket 4.0 23:47:38 10° N 23:50:58 34° ENE 23:54:08 11° SE
FALCON 9 DEB 4.0 23:50:52 10° WNW 23:53:53 46° N 23:56:52 10° ENE
FALCON 9 DEB 3.6 23:50:33 10° WNW 23:53:57 63° NNE 23:57:19 10° E
NOSS 8 (E) 4.1 23:55:06 34° SSW 23:56:18 70° SE 23:59:16 10° NE
